User: anonymous   Login
Location: Cluny
(50.9333°N, 112.8167°W)
Time: 23:01:23
(UTC-06:00)
Language:

Cosmos 1743 Rocket - Orbit

View from above orbital plane
View from above orbital plane
View from above satellite
View from above satellite

Ground track
Ground track

The orbit data is extracted from the following two-line orbital elements,

1 16720U 86034B   17141.88345750 +.00000081 +00000-0 +69278-5 0  9997
2 16720 082.5543 266.0135 0020105 183.9817 295.7606 14.83288695654276
Epoch (UTC): 21 May 2017 21:12:10
Eccentricity: 0.0020105
inclination: 82.5543°
perigee height: 605 km
apogee height: 633 km
right ascension of ascending node: 266.0135°
argument of perigee: 183.9817°
revolutions per day: 14.83288695
mean anomaly at epoch: 295.7606°
orbit number at epoch: 65427

The dashed part of the orbit path shows where the satellite is in the earth's shadow,  

DLR